Orbital Elements at Epoch 2459000.5 (2020-May-31.0) TDB
Reference: JPL 4 (heliocentric ecliptic J2000)
Element | Value | Uncertainty (1-sigma) | Units |
e | .103298974607493 | 8.5622e-08 | |
a | 3.002472337004785 | 1.1508e-07 | au |
q | 2.692320023304827 | 2.8691e-07 | au |
i | 15.63413770062451 | 1.2377e-05 | deg |
node | 77.80420286197266 | 3.6248e-05 | deg |
peri | 278.5923916140298 | 7.1653e-05 | deg |
M | 176.1627065281045 | 6.725e-05 | deg |
tp | 2458070.616755336505 (2017-Nov-13.11675534) | 0.00034657 | TDB |
period | 1900.277162382562 5.20 | 0.00010925 2.991e-07 | d yr |
n | .1894460487798702 | 1.0892e-08 | deg/d |
Q | 3.312624650704742 | 1.2697e-07 | au |
|
| | Orbit Determination Parameters
Additional Information
|